JBU1643 CYKF-KDCA

Flight info

Callsign JBU1643
Flight time N/A
Altitude 35000
Route CYKF3/26 FARGN DCT PSB SKILS5
Aircraft A320/M-SDE3FGHIRWY/LB1

Departure

Time 2026-05-09 01:06
Airport Region of Waterloo International Airport (CYKF)

Arrival

Time N/A
Airport Ronald Reagan Washington National Airport (KDCA)
Time Latitude Longitude Altitude Speed Heading
2026-05-09 00:47 43.45607 -80.38466 1033 ft 0 kts 220°
2026-05-09 00:55 43.45613 -80.38460 1033 ft 4 kts 223°
2026-05-09 00:56 43.45629 -80.38433 1031 ft 4 kts 252°
2026-05-09 00:56 43.45629 -80.38400 1031 ft 3 kts 305°
2026-05-09 00:56 43.45625 -80.38390 1031 ft 0 kts 309°
2026-05-09 00:59 43.45625 -80.38391 1030 ft 1 kts 309°
2026-05-09 00:59 43.45652 -80.38438 1031 ft 12 kts 308°
2026-05-09 01:00 43.45706 -80.38531 1033 ft 13 kts 308°
2026-05-09 01:00 43.45752 -80.38586 1033 ft 7 kts
2026-05-09 01:00 43.45783 -80.38524 1033 ft 9 kts 63°
2026-05-09 01:00 43.45822 -80.38409 1033 ft 17 kts 65°
2026-05-09 01:01 43.45877 -80.38246 1029 ft 21 kts 65°
2026-05-09 01:01 43.45940 -80.38054 1028 ft 23 kts 65°
2026-05-09 01:01 43.46011 -80.37846 1027 ft 25 kts 65°
2026-05-09 01:01 43.46082 -80.37633 1032 ft 25 kts 65°
2026-05-09 01:02 43.46157 -80.37414 1034 ft 26 kts 65°
2026-05-09 01:02 43.46236 -80.37179 1031 ft 28 kts 65°
2026-05-09 01:02 43.46321 -80.36928 1031 ft 30 kts 65°
2026-05-09 01:02 43.46406 -80.36673 1035 ft 25 kts 65°
2026-05-09 01:03 43.46490 -80.36570 1035 ft 0 kts 12°
2026-05-09 01:04 43.46505 -80.36565 1034 ft 8 kts 13°
2026-05-09 01:04 43.46577 -80.36587 1031 ft 12 kts 320°
2026-05-09 01:05 43.46563 -80.36703 1027 ft 15 kts 246°
2026-05-09 01:05 43.46444 -80.37053 1025 ft 81 kts 245°
2026-05-09 01:05 43.45641 -80.39444 1625 ft 161 kts 245°
2026-05-09 01:06 43.44976 -80.40691 2433 ft 168 kts 215°
2026-05-09 01:06 43.43809 -80.41179 2789 ft 190 kts 175°
2026-05-09 01:06 43.42522 -80.40431 3002 ft 217 kts 146°
2026-05-09 01:06 43.41250 -80.39104 3388 ft 240 kts 144°
2026-05-09 01:07 43.39857 -80.37682 3942 ft 258 kts 145°
2026-05-09 01:07 43.38390 -80.36207 4765 ft 263 kts 146°
2026-05-09 01:07 43.36895 -80.34719 5589 ft 270 kts 147°
2026-05-09 01:07 43.35353 -80.33179 5913 ft 276 kts 147°
2026-05-09 01:08 43.33804 -80.31620 6010 ft 276 kts 147°
2026-05-09 01:08 43.32248 -80.30057 6058 ft 278 kts 147°
2026-05-09 01:08 43.30675 -80.28480 6827 ft 281 kts 147°
2026-05-09 01:08 43.29092 -80.26893 7656 ft 284 kts 147°
2026-05-09 01:09 43.27483 -80.25280 8452 ft 289 kts 148°
2026-05-09 01:09 43.25847 -80.23641 9226 ft 294 kts 148°
2026-05-09 01:09 43.24181 -80.21973 9967 ft 299 kts 148°
2026-05-09 01:09 43.22482 -80.20280 10373 ft 316 kts 149°
2026-05-09 01:10 43.20605 -80.18418 10568 ft 339 kts 148°
2026-05-09 01:10 43.18669 -80.16490 11053 ft 349 kts 148°
2026-05-09 01:10 43.16693 -80.14510 11671 ft 355 kts 148°
2026-05-09 01:10 43.14687 -80.12497 12306 ft 360 kts 148°
2026-05-09 01:11 43.12653 -80.10456 12934 ft 365 kts 148°
2026-05-09 01:11 43.10588 -80.08388 13572 ft 370 kts 148°
2026-05-09 01:11 43.08495 -80.06298 14142 ft 375 kts 148°
2026-05-09 01:11 43.06380 -80.04188 14715 ft 379 kts 149°
2026-05-09 01:12 43.04240 -80.02055 15295 ft 382 kts 149°
2026-05-09 01:12 43.02081 -79.99904 15862 ft 386 kts 149°
2026-05-09 01:12 42.99890 -79.97730 16437 ft 390 kts 149°
2026-05-09 01:12 42.97717 -79.95574 17009 ft 393 kts 149°
2026-05-09 01:13 42.95493 -79.93370 17587 ft 397 kts 149°
2026-05-09 01:13 42.93244 -79.91141 18164 ft 401 kts 149°
2026-05-09 01:13 42.90978 -79.88898 18686 ft 404 kts 149°
2026-05-09 01:13 42.88694 -79.86634 19214 ft 408 kts 150°
2026-05-09 01:14 42.86386 -79.84351 19749 ft 411 kts 150°
2026-05-09 01:14 42.84059 -79.82057 20290 ft 415 kts 150°
2026-05-09 01:14 42.81707 -79.79744 20808 ft 418 kts 150°
2026-05-09 01:14 42.79336 -79.77415 21299 ft 422 kts 150°
2026-05-09 01:15 42.76949 -79.75069 21805 ft 425 kts 150°
2026-05-09 01:15 42.74553 -79.72708 22293 ft 429 kts 150°
2026-05-09 01:15 42.72118 -79.70309 22788 ft 432 kts 150°
2026-05-09 01:15 42.69671 -79.67904 23261 ft 436 kts 150°
2026-05-09 01:16 42.67180 -79.65461 23690 ft 440 kts 150°
2026-05-09 01:16 42.64704 -79.63039 24075 ft 443 kts 151°
2026-05-09 01:16 42.62202 -79.60595 24436 ft 447 kts 151°
2026-05-09 01:17 42.57111 -79.55626 25144 ft 454 kts 152°
2026-05-09 01:17 42.54537 -79.53114 25495 ft 457 kts 152°
2026-05-09 01:17 42.51943 -79.50589 25835 ft 461 kts 152°
2026-05-09 01:17 42.49326 -79.48044 26177 ft 464 kts 153°
2026-05-09 01:18 42.46694 -79.45485 26507 ft 468 kts 153°
2026-05-09 01:18 42.45802 -79.44619 26617 ft 469 kts 153°